Location: Althorst
(53.6379°N, 10.7715°E)
Time: 08:38:50
(UTC+00:00)

USA 229 - Pass Details

Date: 10 December 2019
Orbit: 994 x 1218 km, 63.4° (Epoch: 20 January)

Event Time Altitude Azimuth Distance (km) Brightness Sun altitude
Rises 16:05:00 0° 296° (WNW) 3,847 7.2 -9.3°
Reaches altitude 10° 16:07:46 10° 304° (NW) 2,924 6.4 -9.7°
Maximum altitude 16:14:19 41° 14° (NNE) 1,567 4.3 -10.6°
Enters shadow 16:20:29 13° 81° (E) 2,841 5.3 -11.4°
